{"data":{"norad_id":59161,"epoch":"2026-09-19T22:00:27.828000Z","epoch_age_seconds":209162,"freshness":"STALE","line1":"1 59161U 24044K   26262.91698875  .00000869  00000+0  41098-4 0  9995","line2":"2 59161  43.0039  89.8224 0001466 261.0608  99.0078 15.27582602143308","mean_motion":15.27582602,"eccentricity":0.0001466,"inclination_deg":43.0039,"raan_deg":89.8224,"arg_perigee_deg":261.0608,"mean_anomaly_deg":99.0078,"bstar":4.1098e-5,"rev_number":14330,"period_min":94.266588144868,"perigee_km":482.03545598717,"apogee_km":484.04715346612,"semimajor_km":6861.1783047266,"source":"CELESTRAK","updated_at":"2026-09-21T09:00:34.057739Z"}}